Regional Weather Roundup
Issued by NWS

Home | Current Version | Previous Version | Text Only | Print | Product List | Glossary Off
Versions: 1 2 3 4 5 6 7 8 9 10 11 12 13 14 15 16 17 18 19 20 21 22 23 24 25 26 27 28 29 30 31 32 33 34 35 36 37 38 39 40 41 42 43 44 45 46 47 48 49 50

148
ASUS44 KLIX 260107
RWRLA
LOUISIANA WEATHER ROUNDUP
NATIONAL WEATHER SERVICE NEW ORLEANS LA
800 PM CDT WED MAR 25 2015

NOTE: "FAIR" INDICATES FEW OR NO CLOUDS BELOW 12,000 FEET WITH NO
      SIGNIFICANT WEATHER AND/OR OBSTRUCTIONS TO VISIBILITY.
      SKY/WX - SKY CONDITION AND SIGNIFICANT WEATHER.
      TMP - AIR TEMPERATURE.    DP   - DEWPOINT TEMPERATURE.
      RH  - RELATIVE HUMIDITY.  PRES - PRESSURE.
      HX  - HEAT INDEX.         WCI  - WIND CHILL INDEX.

*  THESE STATIONS ARE NOT NWS OR FAA STATIONS AND ARE NOT UNDER
   NWS QUALITY CONTROL.

LAZ040-048-061>063-065-066-069-260200-
SOUTHEAST LOUISIANA

CITY           SKY/WX    TMP DP  RH WIND       PRES   REMARKS
N.O. AUDUBON     N/A     70  61  73 MISG        N/A
N.O. INTL ARPT MOCLDY    70  57  63 SE6       30.00R
N.O. LAKEFRONT PTCLDY    73  56  54 SE9       30.00S
SLIDELL        PTCLDY    69  60  73 SE5       30.00S
BATON ROUGE    MOCLDY    71  58  63 SE6       29.96F
BOOTHVILLE     PTCLDY    67  62  84 E3        30.02R
BELLE CHASSE   MOCLDY    70  58  65 SE6       30.00R
BOGALUSA*        N/A     73  58  60 SE7       30.00S
GALLIANO*      CLEAR     69  62  78 CALM      30.00F
NEW ROADS*     FAIR      72  56  58 S5        29.96S
GONZALES*      FAIR      70  57  63 CALM      29.98S
HAMMOND*       MOCLDY    70  59  68 SE7       30.00S
HOUMA*         PTCLDY    67  60  76 SE3       29.99S
PORT FOURCHON* CLEAR     72  66  83 E10G16    30.03S

$$

LAZ041-044-053-054-260200-
SOUTHWEST LOUISIANA

CITY           SKY/WX    TMP DP  RH WIND       PRES   REMARKS
LAKE CHARLES   MOCLDY    67  59  75 S6        29.96S
LAFAYETTE      CLOUDY    70  56  61 S7        29.97S
PATTERSON      MOCLDY    68  59  73 SE3       29.98F
SALT POINT       N/A     67  60  78 CALM      29.96F
NEW IBERIA     CLOUDY    68  57  68 S6        29.98F
CHENAULT AIRPK CLEAR     68  59  73 S8        29.97S

$$

LAZ027-028-260200-
CENTRAL LOUISIANA

CITY           SKY/WX    TMP DP  RH WIND       PRES   REMARKS
FORT POLK      PTCLDY    70  58  64 S9        29.92S
ALEXANDRIA INT PTCLDY    71  56  58 S6        29.91F
ALEXANDRIA     PTCLDY    71  55  56 CALM      29.93S

$$

LAZ001-002-260200-
NORTHWEST LOUISIANA

CITY           SKY/WX    TMP DP  RH WIND       PRES   REMARKS
SHREVEPORT     PTCLDY    74  57  55 S8        29.86S
BARKSDALE AFB  CLEAR     72  58  60 S12       29.86S
DTN SHREVEPORT MOCLDY    72  56  57 S8        29.86S

$$

LAZ014-016-260200-
NORTHEAST LOUISIANA

CITY           SKY/WX    TMP DP  RH WIND       PRES   REMARKS
MONROE         CLEAR     70  56  61 S6        29.91F
TALLULAH       PTCLDY    71  55  56 S9        29.92F

$$




USA.gov is the U.S. government's official web portal to all federal, state and local government web resources and services.